SCP
0 0 0 0 0 0 0 0 0 0 0 0 0 1 1 1 1 1 1 1 1 1 1 1 1 1 1 1 1 1 2 2 2 1 1 1 1 1 1 1 1 1 1 1
0 0 0 0 0 0 0 0 0 0 0 0 1 1 1 1 1 1 1 1 1 1 1 1 1 1 1 1 1 1 2 2 2 1 1 1 1 1 1 1 1 1 1 1
0 0 0 0 0 0 0 0 0 0 0 1 1 1 1 1 1 1 1 1 1 1 1 1 1 1 1 1 1 1 1 1 2 2 2 2 2 2 1 1 1 1 1 1
0 0 0 0 0 0 0 0 0 0 1 1 1 1 1 1 1 1 1 1 1 1 1 1 1 1 1 1 1 1 1 1 2 2 2 2 2 2 1 1 1 1 1 1
0 0 0 0 0 0 0 0 0 1 1 1 1 1 1 1 1 1 1 1 1 1 1 1 1 1 1 1 1 1 2 2 2 2 2 2 2 2 1 1 1 1 1 1
0 0 0 0 0 0 0 0 0 1 1 1 1 1 1 1 1 1 1 1 1 1 2 2 2 2 1 1 2 2 2 2 2 2 2 2 1 1 1 1 1 1 1 1
0 0 0 0 0 0 0 0 0 1 1 1 1 1 1 1 1 1 1 1 2 2 2 2 2 1 1 1 1 1 2 2 2 2 2 1 1 1 1 1 1 1 1 1
0 0 0 0 0 0 0 0 1 1 1 1 1 1 1 1 1 1 1 1 2 2 2 2 1 1 1 1 1 1 1 1 1 1 1 1 1 1 1 1 1 1 1 1
0 0 0 0 0 0 0 1 1 1 1 1 1 1 1 1 1 1 1 1 1 2 2 1 1 1 1 1 1 1 1 1 1 1 1 1 1 1 1 1 1 1 1 1
0 0 0 0 0 0 0 1 1 1 1 1 1 1 1 1 0 0 1 1 1 1 1 1 1 1 1 1 1 1 1 1 1 1 1 1 1 1 1 1 1 1 1 1
0 0 0 0 0 0 0 1 1 1 1 1 1 1 0 0 0 0 0 1 1 1 1 1 1 1 1 1 1 1 1 1 1 1 1 1 1 1 1 1 1 1 1 1
0 0 0 0 0 0 0 0 0 0 0 0 0 0 0 0 0 0 0 1 1 1 1 1 1 1 1 1 1 1 1 1 1 1 1 1 1 1 1 1 0 0 1 1
0 0 0 0 0 0 0 0 0 0 0 0 0 0 0 0 0 0 1 1 1 1 1 1 1 1 1 1 1 1 1 1 1 1 1 1 1 1 0 0 0 0 0 0
0 0 0 0 0 0 0 0 0 0 0 0 0 0 0 0 0 1 1 0 0 1 1 1 1 1 1 1 1 0 0 0 0 0 0 0 0 0 0 0 0 0 0 0
0 0 0 0 0 0 0 0 0 0 0 0 0 0 0 0 0 0 0 0 0 0 0 1 1 0 0 0 0 0 0 0 0 0 0 0 0 0 0 0 0 0 0 0
0 0 0 0 0 0 0 0 0 0 0 0 0 0 0 0 0 0 0 0 0 0 0 0 0 0 0 0 0 0 0 0 0 0 0 0 0 0 0 0 0 0 0 0
0 0 0 0 0 0 0 0 0 0 0 0 0 0 0 0 0 0 0 0 0 0 0 0 0 0 0 0 0 0 0 0 0 0 0 0 0 0 0 0 0 0 0 0
0 0 0 0 0 0 0 0 0 0 0 0 0 0 0 0 0 0 0 0 0 0 0 0 0 0 0 0 0 0 0 0 1 1 1 1 0 0 0 0 0 0 0 0
0 0 0 0 0 0 0 0 0 0 0 0 0 0 0 0 0 0 0 0 0 0 0 0 0 0 0 0 0 0 0 0 0 0 0 0 0 0 0 0 0 0 0 0
0 0 0 0 0 0 0 0 0 0 0 0 0 0 0 0 0 0 0 0 0 0 0 0 0 0 0 0 0 0 0 0 0 0 0 0 0 0 0 0 0 0 0 0
0 0 0 0 0 0 0 0 0 0 0 0 0 0 0 0 0 0 0 0 0 0 0 0 0 0 0 0 0 0 0 0 0 0 0 0 0 0 0 0 0 0 0 0
0 0 0 0 0 0 0 0 0 0 0 0 0 0 0 0 0 0 0 0 0 0 0 0 0 0 0 0 0 0 0 0 0 0 0 0 0 0 0 0 0 0 -0 -0
0 0 0 0 0 0 0 0 0 0 0 0 0 0 0 0 0 0 0 0 0 0 0 0 0 0 0 0 0 0 0 0 0 0 0 0 0 0 0 0 0 0 -0 -0
0 0 0 0 0 0 0 0 0 0 0 0 0 0 0 0 0 0 0 0 0 0 0 0 0 0 0 0 0 0 0 0 0 0 0 0 0 0 0 0 0 0 0 0
0 0 0 0 0 0 0 0 0 0 0 0 0 0 0 0 0 0 0 0 0 0 0 0 0 0 0 0 0 0 0 0 0 0 0 0 0 0 0 0 0 0 0 0
0 0 0 0 0 0 0 0 0 0 0 0 0 0 0 0 0 0 0 0 0 0 0 0 0 0 0 0 0 0 0 0 0 0 0 0 0 0 0 0 0 0 0 0
0 0 0 0 0 0 0 0 0 0 0 0 0 0 0 0 0 0 0 0 0 0 0 0 0 0 0 0 0 0 0 0 0 0 0 0 0 0 0 0 0 0 0 0
Wind_Speed
4 4 2 2 4 3 4 8 8 8 8 9 9 9 8 8 9 9 8 6 6 6 6 6 6 6 6 6 7 8 8 8 8 7 5 5 4 4 4 4 4 3 3 3
2 2 2 2 3 2 2 3 6 5 4 5 5 5 6 7 9 10 8 7 6 6 6 6 7 6 6 6 7 7 8 8 7 6 5 5 5 4 4 3 3 3 3 3
2 4 3 3 3 2 1 1 5 5 5 4 5 6 7 8 9 9 9 8 8 9 8 7 6 6 7 7 7 7 6 6 6 6 6 6 5 4 4 3 2 2 2 2
0 3 3 7 3 3 5 3 3 4 4 5 7 6 5 6 8 8 8 8 7 6 6 6 6 5 5 5 6 6 6 5 5 6 6 5 5 5 4 3 3 3 2 2
3 2 4 5 4 1 4 3 3 6 6 5 6 7 3 1 4 6 7 6 6 6 6 5 5 5 5 4 5 5 5 5 5 5 5 5 5 5 4 3 2 3 3 3
3 3 5 6 6 1 7 2 3 5 6 6 6 5 2 1 3 5 5 5 5 5 6 5 4 5 5 5 5 4 4 4 4 4 5 5 5 4 3 3 3 3 2 3
4 3 5 6 6 3 4 5 2 3 5 4 3 4 3 2 3 4 4 5 6 6 5 5 5 6 6 4 4 4 3 3 3 3 3 4 4 3 3 3 3 3 2 2
3 3 6 5 3 3 4 3 2 3 4 5 4 5 5 5 5 4 4 4 5 5 4 3 4 6 5 3 2 2 3 3 2 2 2 2 3 3 3 4 3 3 2 2
5 5 4 2 1 1 3 4 3 3 4 7 6 5 4 4 4 4 4 4 4 6 5 3 3 4 3 2 2 3 3 2 2 2 2 1 2 3 2 2 2 2 2 2
1 2 3 3 4 5 5 5 3 4 5 6 6 5 4 3 3 3 4 3 4 6 5 3 3 3 2 2 2 3 3 2 2 2 1 1 0 1 2 3 3 2 3 2
1 3 4 5 3 3 4 5 5 4 4 5 6 5 4 3 2 3 3 3 4 5 5 3 3 3 2 2 3 3 2 2 2 1 1 1 1 1 1 2 3 4 4 3
6 5 2 3 2 2 3 2 3 4 4 3 4 4 3 2 2 3 3 3 3 4 4 4 4 3 3 3 3 4 2 2 2 2 1 1 1 1 3 1 1 1 3 3
6 4 3 3 2 1 2 1 2 3 2 2 2 3 3 2 1 2 3 3 3 3 3 3 3 3 3 3 3 4 3 3 2 2 2 2 2 2 1 2 4 3 0 2
2 2 1 2 1 1 2 2 2 3 2 2 2 3 3 2 2 2 2 1 2 3 2 2 3 2 2 2 3 3 2 2 3 3 3 3 3 2 2 2 1 1 2 2
2 2 3 1 0 1 1 3 3 2 2 2 2 2 3 3 2 1 1 1 3 2 1 1 1 1 1 2 3 3 2 1 2 2 2 2 2 2 2 2 2 1 1 2
1 1 2 2 1 1 1 2 2 1 1 1 1 1 2 3 2 1 1 2 3 1 1 1 1 2 1 2 2 2 2 3 3 2 2 2 2 2 2 2 2 2 2 2
1 1 1 1 1 1 1 1 2 2 2 1 2 2 3 3 3 2 1 1 2 1 1 1 1 1 0 1 2 1 1 2 2 2 2 2 2 2 2 2 2 2 2 3
3 4 3 3 3 2 1 1 1 2 2 2 3 3 3 3 2 1 1 2 3 2 2 1 1 1 1 1 1 1 1 1 1 2 2 2 2 2 2 2 2 1 1 1
2 2 2 2 2 2 2 2 2 2 2 3 3 3 2 2 2 1 1 2 3 1 2 1 1 2 1 1 1 1 1 1 1 1 1 2 1 1 1 1 1 1 1 1
1 1 1 1 1 2 2 2 2 2 2 3 3 3 2 1 2 2 2 2 0 1 1 0 1 1 1 2 2 1 1 1 1 1 1 2 2 1 1 1 1 0 0 0
1 1 2 2 2 1 2 3 2 2 1 3 4 3 2 1 2 2 2 1 2 1 1 1 1 1 1 1 2 2 2 2 2 2 2 2 2 1 1 1 1 1 1 1
0 0 1 1 2 2 2 2 3 3 2 3 3 3 2 1 2 2 1 1 1 1 1 1 1 1 2 3 2 2 2 2 2 2 2 2 2 2 1 2 1 1 1 1
0 0 0 1 3 3 2 2 3 3 3 3 3 3 2 2 2 3 1 0 0 2 1 1 2 3 4 3 3 3 3 2 2 2 2 2 2 2 1 1 1 1 1 1
0 0 0 1 3 4 3 2 3 3 3 3 3 4 4 3 2 1 2 2 3 3 2 2 3 4 4 3 3 2 3 3 3 3 3 3 2 2 2 2 2 1 1 2
2 3 3 3 3 2 2 4 5 5 4 3 3 3 2 3 3 2 2 3 4 4 3 3 4 4 3 3 3 3 2 2 3 3 3 3 3 2 2 2 2 2 2 2
3 3 2 2 2 3 3 3 3 3 3 3 3 3 3 3 3 3 3 3 5 4 3 2 3 3 3 3 3 3 2 2 3 3 3 3 3 3 2 2 2 2 1 1
4 4 3 3 3 3 3 4 4 3 3 4 3 2 3 3 3 3 3 3 3 3 3 2 3 3 3 3 3 3 3 3 3 3 3 3 2 2 2 2 1 1 1 1
Wind_Direction
220 232 228 252 260 225 177 180 179 205 192 207 198 184 174 155 143 137 138 146 160 169 169 166 172 181 181 189 188 184 179 184 192 190 185 179 178 182 180 182 185 190 188 195
335 333 5 335 289 248 216 169 162 158 210 222 189 157 150 151 144 145 154 162 163 164 166 170 174 183 181 193 190 176 176 187 186 178 177 180 182 181 178 181 184 178 183 190
302 318 28 313 273 195 142 134 150 176 206 162 137 153 167 164 155 159 161 164 171 177 173 175 175 174 180 187 174 164 176 181 177 176 178 183 180 175 181 181 173 184 196 190
133 40 213 241 273 101 94 58 92 123 152 148 151 161 161 157 160 163 158 160 165 176 170 166 162 165 167 160 155 163 172 182 180 176 182 183 177 181 182 174 176 192 203 203
126 166 270 298 316 98 114 15 41 112 111 99 108 86 55 106 138 151 149 150 147 148 149 150 148 147 136 140 148 155 175 185 187 182 181 180 185 187 179 167 175 196 193 197
136 157 219 255 293 330 95 37 337 104 121 121 97 100 233 233 111 121 128 132 131 130 122 124 137 135 135 147 141 152 177 180 176 177 180 185 187 178 171 172 190 195 192 199
163 199 251 269 298 39 109 211 261 115 122 112 123 168 187 130 105 113 119 122 126 123 130 143 143 133 132 142 161 178 158 142 148 162 178 177 168 168 165 171 175 184 197 207
150 184 247 301 15 102 195 191 148 97 101 97 104 101 100 99 104 107 113 116 122 121 124 122 125 129 133 154 178 143 124 119 129 139 156 145 145 161 162 165 176 191 194 212
175 205 250 337 119 172 132 119 111 98 98 104 101 99 93 90 98 107 111 119 118 120 113 93 94 111 130 178 136 115 116 127 121 111 117 124 153 159 153 165 178 194 194 212
50 287 316 5 46 46 74 91 95 103 103 97 98 94 89 88 85 96 100 109 112 111 111 106 104 109 140 149 119 124 133 127 100 98 83 70 98 161 162 178 189 194 202 216
290 281 351 351 18 51 43 53 61 65 82 99 104 103 112 121 129 123 118 117 117 122 128 136 131 141 166 152 139 137 136 130 120 112 111 91 66 71 181 211 208 198 206 198
227 230 187 261 310 57 65 60 79 74 57 57 98 110 109 121 146 134 129 124 120 131 148 158 154 158 175 172 152 149 155 155 149 146 143 146 134 48 24 24 1 198 189 185
214 220 209 250 300 31 68 60 79 85 103 71 68 95 98 101 93 95 100 110 127 144 156 156 155 161 181 179 157 155 168 172 169 169 168 179 177 170 189 3 22 23 315 207
199 159 272 287 282 355 94 106 91 80 93 106 99 89 95 98 106 111 123 154 130 131 150 158 157 175 187 163 141 139 153 169 178 187 186 189 188 190 183 183 236 321 328 274
270 183 200 225 81 46 73 91 86 78 81 73 72 92 114 123 134 150 157 123 102 105 152 159 152 215 200 146 139 143 154 181 185 191 193 189 178 172 176 183 192 220 274 300
331 69 119 120 123 141 109 118 125 139 136 119 94 103 130 130 117 94 109 115 112 129 208 185 198 233 192 147 146 154 181 215 213 186 188 176 160 166 178 188 199 213 226 232
76 265 152 153 161 168 172 190 169 166 153 137 141 124 116 105 84 61 46 101 120 141 149 156 234 247 124 151 157 170 178 212 213 172 171 175 175 184 190 191 203 218 236 237
218 214 196 172 168 169 190 229 207 161 157 162 137 122 120 117 115 108 81 73 81 64 34 28 356 28 70 84 121 137 157 181 177 179 177 183 190 191 184 187 197 213 253 269
231 201 194 192 187 174 194 219 216 184 159 142 135 139 146 143 136 125 101 90 89 60 324 346 52 45 13 349 56 102 121 130 132 159 161 152 142 139 150 157 181 213 220 232
284 222 218 239 238 205 196 183 164 163 166 146 132 128 126 133 130 121 101 80 56 251 256 57 66 36 350 340 17 81 96 100 102 99 115 120 118 111 116 118 112 85 356 326
269 213 211 226 228 206 164 147 142 156 163 143 134 141 154 158 137 126 109 70 326 356 12 46 49 19 18 25 47 82 94 101 112 116 116 112 102 95 80 76 72 67 45 15
318 339 259 242 160 147 140 131 136 141 145 142 137 133 125 120 119 103 94 170 238 33 44 38 43 60 60 57 66 77 82 84 83 87 90 94 95 87 78 82 76 54 27 3
19 13 344 140 137 134 116 124 143 143 142 146 147 150 155 165 156 138 121 313 80 50 50 53 66 61 55 58 59 59 66 70 77 87 92 99 104 105 108 102 86 57 16 2
242 77 102 133 114 107 108 116 113 112 114 115 118 124 123 113 80 81 126 116 88 70 68 54 46 55 66 71 67 64 64 67 72 78 83 87 82 80 82 87 82 59 33 26
116 95 77 74 80 98 116 112 101 94 91 86 88 94 97 116 126 122 110 105 89 72 60 47 48 54 70 80 78 71 71 75 77 78 78 81 81 78 68 62 63 55 38 35
96 96 97 106 108 105 102 104 105 102 100 94 82 77 81 87 99 98 92 85 77 70 61 51 54 62 72 72 72 72 70 68 72 75 79 81 78 73 66 57 51 45 33 27
74 75 71 65 71 87 94 96 97 95 104 112 105 96 96 92 87 85 83 81 75 71 64 62 65 68 73 71 71 69 68 66 67 69 71 68 65 63 60 57 43 35 29 14